Palacios, TX

1:39 PM CDT on April 24, 2017 (GMT -0500)
Palacios Municipal

Weather History for KPSX - April, 2014

Change the Weather History Date:

Sunday, April 6, 2014

  Actual Average Record
Temperature  
Mean Temperature 64 °F -  
Max Temperature 75 °F 74 °F 85 °F (1943)
Min Temperature 55 °F 55 °F 41 °F (1971)
Degree Days  
Heating Degree Days 1    
Growing Degree Days 14 (Base 50)    
Moisture  
Dew Point 64 °F    
Average Humidity 94    
Maximum Humidity 100    
Minimum Humidity 84    
Precipitation  
Precipitation 0.02 in - - ()
Sea Level Pressure  
Sea Level Pressure 29.73 in    
Wind  
Wind Speed 14 mph (East)    
Max Wind Speed 20 mph    
Max Gust Speed -    
Visibility 5 miles    
Events Fog , Rain    
Averages and records for this station are not official NWS values.
T = Trace of Precipitation, MM = Missing Value Source: NWS Daily Summary

Daily Weather History Graph

Daily Weather History Graph

Search for Another Location

Airport or City:

Trip Planner

Search our weather history database for the weather conditions in past years. The results will help you decide how hot, cold, wet, or windy it might be!

Date:

Astronomy

Apr. 06, 2014 Rise Set
Actual Time 7:09 AM CDT 7:45 PM CDT
Civil Twilight 6:45 AM CDT 8:09 PM CDT
Nautical Twilight 6:17 AM CDT 8:37 PM CDT
Astronomical Twilight 5:48 AM CDT 9:06 PM CDT
Moon 12:26 PM CDT (4/6) 1:27 AM CDT (4/6)
Length of Visible Light 13h 24m
Length of Day
12h 36m
Waxing Crescent, 44% of the Moon is Illuminated
Apr 6
Waxing Crescent
Apr 7
First Quarter
Apr 15
Full
Apr 22
Last Quarter
Apr 29
New

Hourly Weather History & Observations

Time (CDT) Temp. Dew Point Humidity Pressure Visibility Wind Dir Wind Speed Gust Speed Precip Events Conditions
12:02 AM 63.0 °F 62.1 °F 97% 29.84 in 5.0 mi East 17.3 mph - N/A   Overcast
12:38 AM 64.0 °F 62.1 °F 93% 29.84 in 5.0 mi East 15.0 mph - N/A   Overcast
12:53 AM 64.0 °F 63.0 °F 96% 29.84 in 5.0 mi ENE 13.8 mph - N/A   Overcast
1:42 AM 64.0 °F 63.0 °F 96% 29.82 in 4.0 mi ENE 12.7 mph - N/A   Overcast
1:53 AM 64.0 °F 63.0 °F 96% 29.82 in 3.0 mi ENE 12.7 mph - N/A   Overcast
2:53 AM 64.9 °F 64.0 °F 97% 29.79 in 3.0 mi East 13.8 mph - N/A   Overcast
3:07 AM 64.9 °F 64.0 °F 97% 29.79 in 2.5 mi East 12.7 mph - 0.00 in Rain Light Rain
3:17 AM 64.9 °F 64.0 °F 97% 29.78 in 3.0 mi East 13.8 mph - 0.00 in   Overcast
3:42 AM 64.9 °F 64.0 °F 97% 29.77 in 2.0 mi ENE 12.7 mph - 0.00 in   Overcast
3:53 AM 64.9 °F 64.0 °F 97% 29.77 in 1.8 mi ENE 15.0 mph - 0.00 in   Overcast
4:53 AM 64.9 °F 64.9 °F 100% 29.75 in 1.2 mi ENE 11.5 mph - N/A   Overcast
5:53 AM 66.0 °F 64.9 °F 96% 29.75 in 1.0 mi East 12.7 mph - N/A   Overcast
6:53 AM 66.9 °F 66.0 °F 97% 29.74 in 1.0 mi East 11.5 mph - N/A   Overcast
7:39 AM 66.9 °F 66.9 °F 100% 29.74 in 0.5 mi East 11.5 mph - N/A Fog Fog
7:53 AM 66.9 °F 66.9 °F 100% 29.74 in 0.8 mi East 12.7 mph - N/A   Mist
8:53 AM 69.1 °F 69.1 °F 100% 29.73 in 1.8 mi ESE 11.5 mph - N/A   Overcast
9:01 AM 69.1 °F 69.1 °F 100% 29.72 in 2.5 mi ESE 10.4 mph - N/A   Overcast
9:42 AM 71.1 °F 70.0 °F 96% 29.72 in 4.0 mi SE 11.5 mph - N/A   Overcast
9:53 AM 71.1 °F 70.0 °F 96% 29.72 in 4.0 mi SE 12.7 mph - N/A   Overcast
10:04 AM 72.0 °F 71.1 °F 97% 29.72 in 5.0 mi SE 13.8 mph - N/A   Overcast
10:20 AM 72.0 °F 71.1 °F 97% 29.72 in 6.0 mi SSE 13.8 mph - N/A   Overcast
10:31 AM 73.0 °F 71.1 °F 93% 29.71 in 6.0 mi SSE 13.8 mph - N/A   Overcast
10:53 AM 73.0 °F 71.1 °F 93% 29.72 in 6.0 mi SSE 12.7 mph - N/A   Overcast
11:45 AM 73.0 °F 71.1 °F 93% 29.70 in 4.0 mi South 13.8 mph - N/A   Overcast
11:53 AM 73.9 °F 71.1 °F 91% 29.70 in 4.0 mi South 12.7 mph - N/A   Overcast
12:37 PM 73.0 °F 70.0 °F 90% 29.70 in 5.0 mi SSW 9.2 mph - N/A   Overcast
12:53 PM 73.0 °F 70.0 °F 90% 29.69 in 5.0 mi South 10.4 mph - N/A   Overcast
1:29 PM 72.0 °F 69.1 °F 91% 29.68 in 4.0 mi SSW 9.2 mph - N/A   Overcast
1:53 PM 72.0 °F 69.1 °F 91% 29.67 in 4.0 mi South 10.4 mph - N/A   Overcast
2:40 PM 73.9 °F 71.1 °F 91% 29.64 in 4.0 mi South 11.5 mph - N/A   Overcast
2:53 PM 73.9 °F 70.0 °F 87% 29.64 in 4.0 mi SSW 10.4 mph - N/A   Overcast
3:12 PM 73.0 °F 71.1 °F 93% 29.63 in 4.0 mi SSW 10.4 mph - 0.00 in Rain Light Rain
3:16 PM 73.0 °F 71.1 °F 93% 29.64 in 4.0 mi SSW 8.1 mph - 0.00 in Rain Light Rain
3:53 PM 66.0 °F 64.0 °F 93% 29.64 in 4.0 mi NNW 17.3 mph - 0.01 in Rain Heavy Rain
4:07 PM 64.9 °F 63.0 °F 93% 29.64 in 6.0 mi NNW 15.0 mph - 0.01 in Rain Light Rain
4:53 PM 64.0 °F 62.1 °F 93% 29.65 in 7.0 mi NNW 18.4 mph - 0.01 in   Overcast
5:53 PM 60.1 °F 57.9 °F 93% 29.67 in 6.0 mi North 19.6 mph - N/A   Overcast
6:43 PM 57.9 °F 55.0 °F 90% 29.70 in 10.0 mi NNW 18.4 mph - N/A   Overcast
6:53 PM 57.9 °F 55.0 °F 90% 29.70 in 10.0 mi North 16.1 mph - 0.00 in Rain Light Rain
7:49 PM 57.2 °F 55.4 °F 94% 29.71 in 10.0 mi North 12.7 mph - 0.00 in   Overcast
7:53 PM 57.9 °F 54.0 °F 87% 29.71 in 10.0 mi North 11.5 mph - 0.00 in   Overcast
8:16 PM 57.9 °F 55.0 °F 90% 29.73 in 10.0 mi NNW 15.0 mph - N/A   Overcast
8:53 PM 57.0 °F 54.0 °F 89% 29.74 in 10.0 mi NNW 16.1 mph - N/A   Scattered Clouds
9:22 PM 57.9 °F 54.0 °F 87% 29.75 in 10.0 mi North 15.0 mph - N/A   Mostly Cloudy
9:53 PM 57.9 °F 54.0 °F 87% 29.76 in 10.0 mi North 17.3 mph - N/A   Overcast
10:53 PM 55.9 °F 52.0 °F 87% 29.78 in 10.0 mi North 16.1 mph - N/A   Overcast
11:53 PM 55.9 °F 51.1 °F 84% 29.81 in 10.0 mi North 15.0 mph - N/A   Overcast